This demonstration page uses our WeatherBlox Daily Observations layout. Learn more.

Left ArrowRight Arrow

Hourly Observations for February 10, 2019

Temp ( °F °C ) Dew Point ( °F °C ) Humidity (%) Winds ( mph kmh ) Pressure ( in mb ) Visibility ( mi km ) Precip ( " mm )
12:52 am 00:52 Cloudy 27 -2.8 18 -7.8 69 69 SE 13 20 30.34 1028 10 16 0.00 0.00
1:52 am 01:52 Cloudy 27 -2.8 18 -7.8 69 69 SE 15 24 30.30 1026 10 16 0.00 0.00
2:52 am 02:52 Cloudy 27 -2.8 19 -7.2 72 72 SE 12 19 30.29 1026 9 14 0.00 0.03
3:52 am 03:52 Windy with Snow Likely 27 -2.8 19 -7.2 72 72 SE 20 31 30.25 1025 6 10 0.00 0.03
3:59 am 03:59 Windy with Snow Likely 26 -3.3 19 -7.2 75 75 SE 20 31 30.28 1025 2 3 0.00 0.03
4:07 am 04:07 Windy with Snow Likely 26 -3.3 20 -6.7 78 78 SE 21 33 30.27 1025 2 2 0.00 0.03
4:30 am 04:30 Mostly Cloudy with Light Snow 26 -3.3 22 -5.6 84 84 SE 17 28 30.26 1025 1 2 0.01 0.25
4:50 am 04:50 Mostly Cloudy with Light Snow 27 -3 21 -6 80 80 SE 14 22 30.25 1024 1 1 0.02 0.51
4:52 am 04:52 Mostly Cloudy with Light Snow 26 -3.3 22 -5.6 84 84 SE 14 22 30.22 1023 1 1 0.02 0.51
5:04 am 05:04 Mostly Cloudy with Snow 26 -3.3 22 -5.6 84 84 SE 15 24 30.24 1024 1 1 0.03 0.76
5:52 am 05:52 Mostly Cloudy with Light Snow 26 -3.3 23 -5 88 88 SE 16 26 30.19 1022 1 1 0.11 2.79
6:02 am 06:02 Mostly Cloudy with Light Snow 26 -3.3 23 -5 88 88 SE 15 24 30.22 1023 1 1 0.00 0.03
6:13 am 06:13 Cloudy with Light Snow 26 -3.3 23 -5 88 88 SE 17 28 30.22 1023 1 2 0.02 0.51
6:52 am 06:52 Cloudy with Light Snow 26 -3.3 23 -5 88 88 SSE 8 13 30.19 1023 1 2 0.04 1.02
7:07 am 07:07 Mostly Cloudy with Light Snow 26 -3.3 23 -5 88 88 SSE 8 13 30.23 1024 1 2 0.01 0.25
7:14 am 07:14 Mostly Cloudy with Light Snow 26 -3.3 23 -5 88 88 SSE 8 13 30.23 1024 1 1 0.01 0.25
7:24 am 07:24 Mostly Cloudy with Light Snow 26 -3.3 23 -5 88 88 SE 6 9 30.24 1024 1 1 0.02 0.51
7:52 am 07:52 Mostly Cloudy with Snow 26 -3.3 23 -5 88 88 SE 6 9 30.20 1023 0 0 0.05 1.27
8:07 am 08:07 Mostly Cloudy with Snow 26 -3.3 23 -5 88 88 SE 6 9 30.23 1024 1 1 0.02 0.51
8:52 am 08:52 Cloudy with Light Snow 26 -3.3 23 -5 88 88 SE 6 9 30.19 1023 1 1 0.03 0.76
9:34 am 09:34 Cloudy with Light Snow 26 -3.3 23 -5 88 88 SE 8 13 30.23 1024 1 2 0.02 0.51
9:52 am 09:52 Cloudy with Light Snow 27 -2.8 23 -5 85 85 SE 9 15 30.19 1023 2 3 0.02 0.51
10:33 am 10:33 Cloudy with Light Snow 27 -2.8 23 -5 85 85 SSE 9 15 30.21 1023 3 5 0.00 0.03
10:52 am 10:52 Cloudy 28 -2.2 23 -5 81 81 SSE 7 11 30.19 1022 7 11 0.00 0.03
11:52 am 11:52 Cloudy 28 -2.2 23 -5 81 81 SSE 7 11 30.19 1022 10 16 0.00 0.00
12:52 pm 12:52 Cloudy 29 -1.7 24 -4.4 82 82 SSE 3 6 30.16 1021 10 16 0.00 0.00
1:52 pm 13:52 Cloudy 31 -0.6 24 -4.4 76 76 NNW 5 7 30.15 1021 10 16 0.00 0.00
2:52 pm 14:52 Cloudy 31 -0.6 25 -3.9 79 79 Calm 30.15 1021 10 16 0.00 0.00
3:52 pm 15:52 Cloudy 31 -0.6 25 -3.9 79 79 NNE 5 7 30.16 1021 10 16 0.00 0.00
4:52 pm 16:52 Cloudy 30 -1.1 24 -4.4 79 79 NNE 8 13 30.16 1021 7 11 0.00 0.00
5:28 pm 17:28 Cloudy 29 -1.7 24 -4.4 82 82 N 7 11 30.18 1022 7 11 0.00 0.00
5:52 pm 17:52 Cloudy 29 -1.7 24 -4.4 82 82 N 8 13 30.15 1021 7 11 0.00 0.00
6:52 pm 18:52 Cloudy 29 -1.7 23 -5 78 78 N 7 11 30.16 1021 10 16 0.00 0.00
7:13 pm 19:13 Cloudy 28 -2.2 23 -5 81 81 N 8 13 30.19 1022 10 16 0.00 0.00
7:52 pm 19:52 Cloudy 28 -2.2 23 -5 81 81 N 7 11 30.18 1022 10 16 0.00 0.00
8:52 pm 20:52 Cloudy 28 -2.2 23 -5 81 81 NNE 8 13 30.17 1022 10 16 0.00 0.00
9:52 pm 21:52 Cloudy 28 -2.2 22 -5.6 78 78 NE 7 11 30.18 1022 10 16 0.00 0.00
10:52 pm 22:52 Cloudy 28 -2.2 22 -5.6 78 78 E 6 9 30.18 1022 8 13 0.00 0.00
11:11 pm 23:11 Cloudy 28 -2.2 22 -5.6 78 78 ENE 6 9 30.21 1023 8 13 0.00 0.00
11:52 pm 23:52 Cloudy 27 -2.8 22 -5.6 81 81 NE 8 13 30.16 1021 7 11 0.00 0.00

Powered by AerisWeather